Location: Maccacari
(45.1333°N, 11.1333°E)
Time: 07:50:57
(UTC+00:00)

Okean 1 Rocket - Pass Details

Date: 18 September 2020
Orbit: 605 x 635 km, 82.5° (Epoch: 29 October)

Event Time Altitude Azimuth Distance (km) Brightness Sun altitude
Exits shadow 19:51:20 71° 322° (NW) 676 3.3 -26.1°
Drops below altitude 10° 19:55:31 10° 6° (N) 2,033 6.0 -26.7°
Sets 19:57:47 0° 8° (N) 2,946 6.9 -27.1°
